Temperature
16 16 16 16 16 16 17 17 17 17 17 17 17 17 17 17 17 17 17 17 17 16 16 16 16 16 15 15 15 15 15 15 15 15 15 15 15 15 15 15 15 15 14
16 16 16 16 16 16 16 17 17 17 17 17 17 17 17 17 17 17 16 16 16 16 16 16 16 16 15 15 15 15 15 15 15 15 15 15 15 15 15 15 15 14 15
16 16 16 16 16 16 16 16 16 17 17 17 17 17 17 17 17 16 16 16 16 16 16 16 16 15 15 15 15 15 15 15 15 15 15 15 14 14 14 14 14 14 14
15 16 16 16 16 16 16 16 16 16 16 17 17 17 17 17 16 16 16 16 16 16 16 16 15 15 15 15 15 15 15 15 15 15 15 15 14 14 14 14 14 14 14
15 15 15 15 16 16 16 16 16 16 16 16 16 16 16 16 16 16 16 16 16 16 16 16 15 15 15 15 15 15 15 15 15 15 15 15 14 14 14 14 14 14 14
15 15 15 15 16 16 16 16 16 16 16 16 16 16 16 16 16 16 16 16 16 16 16 15 15 15 15 15 15 15 15 15 15 15 14 14 14 14 14 14 14 14 14
15 15 15 15 15 15 16 16 16 16 16 16 16 16 16 16 16 16 16 16 16 16 15 15 15 15 15 15 15 15 15 15 14 14 14 14 14 14 14 14 14 14 14
15 15 15 15 15 15 15 15 15 15 15 16 16 16 16 16 16 16 16 16 15 15 15 15 15 15 15 15 15 15 14 14 14 14 14 14 14 14 14 14 14 14 14
14 15 15 15 15 15 15 15 15 15 15 15 15 15 15 15 15 15 15 15 15 15 15 15 15 15 15 15 15 15 14 14 14 14 14 14 14 14 14 14 14 14 14
14 14 14 15 15 15 15 15 15 15 15 15 15 15 15 15 15 15 15 15 15 15 15 15 15 15 15 15 15 15 14 14 14 14 14 14 14 14 14 14 14 14 14
14 14 14 14 14 15 15 15 15 15 15 15 15 15 15 15 15 15 15 15 15 15 15 15 15 15 15 15 15 15 14 14 14 14 14 14 14 14 14 14 14 14 14
13 14 14 14 14 14 14 14 14 14 15 15 15 15 15 15 15 15 15 15 15 15 15 15 15 15 15 15 15 14 14 14 14 14 14 14 14 14 14 14 14 14 14
13 13 13 13 14 14 14 14 14 14 14 14 14 14 14 14 14 14 14 14 14 14 14 14 14 14 14 14 15 15 15 15 14 14 14 14 14 14 14 14 14 14 14
12 12 13 13 13 13 14 14 14 14 14 14 14 14 14 14 14 14 14 14 14 14 14 14 14 14 14 14 14 14 14 14 14 14 14 14 14 14 14 14 14 14 14
12 12 12 12 13 13 13 13 13 13 14 14 14 14 14 14 14 14 14 14 14 14 14 14 14 14 14 14 14 14 14 14 14 14 14 14 14 14 14 14 14 14 14
12 12 12 12 12 12 13 13 13 13 13 13 13 13 13 13 13 13 14 14 14 14 14 14 14 14 14 14 14 14 14 14 14 14 14 14 14 14 14 14 14 14 14
11 11 11 12 12 12 12 12 12 12 13 13 13 13 13 13 13 13 13 13 13 13 13 13 13 13 13 13 14 14 14 14 14 14 14 14 14 14 14 14 14 14 14
10 11 11 11 11 11 11 11 12 12 12 12 12 12 12 12 12 12 12 13 13 13 13 13 13 13 13 13 13 13 14 14 14 14 14 14 14 14 14 14 13 14 14
9 10 10 10 11 11 11 11 11 11 11 11 12 12 12 12 12 12 12 12 12 12 12 12 13 12 13 13 13 13 13 13 13 13 13 14 14 14 14 14 13 13 13
9 9 9 10 10 10 10 11 11 11 11 11 11 11 11 11 11 11 11 11 11 12 12 12 12 12 12 12 12 12 12 13 13 13 13 13 13 13 13 13 13 13 13
9 9 9 9 9 10 10 10 10 10 11 11 11 11 11 11 11 11 11 11 11 11 11 11 11 11 12 11 11 11 12 12 12 12 13 13 13 13 13 13 13 13 13
8 8 9 9 9 9 9 9 9 9 10 10 10 10 10 10 10 10 10 10 10 10 11 10 11 11 11 11 11 10 10 11 12 12 13 13 13 13 13 13 13 13 13
8 8 8 8 8 8 8 8 9 9 9 9 10 10 10 10 10 10 10 10 10 10 10 10 10 10 10 10 10 10 10 10 11 12 12 12 12 12 12 12 13 13 12
7 7 7 7 7 8 8 8 8 8 8 9 9 9 9 9 9 9 9 9 9 9 10 10 10 9 9 9 9 9 9 9 10 10 11 11 12 12 12 12 12 12 12
7 7 7 7 7 7 7 7 7 7 8 8 8 8 8 8 8 9 9 9 9 9 9 9 9 9 9 9 9 9 9 9 9 9 9 10 11 11 11 11 11 11 11
6 6 6 6 7 7 7 7 7 7 7 7 7 8 8 8 8 8 8 8 8 8 8 8 8 8 8 8 8 8 8 8 8 9 9 9 9 10 10 11 11 11 11
Wind_Speed
3 4 2 6 8 9 10 10 10 11 11 12 12 12 12 12 11 11 10 10 10 9 9 9 9 10 10 11 11 11 12 12 13 12 12 12 12 13 12 12 12 12 13
3 3 3 7 8 9 9 10 9 9 10 11 11 11 11 10 10 10 10 9 9 9 9 9 9 10 10 10 11 12 12 12 12 12 12 11 11 11 12 12 11 11 12
2 2 3 7 8 9 9 9 8 8 8 9 9 10 9 9 8 8 8 8 8 8 8 9 9 9 9 10 11 11 11 11 10 10 10 9 9 10 10 10 11 11 11
3 4 4 6 8 8 8 8 7 7 7 8 8 8 8 8 7 7 7 7 7 8 8 9 9 9 9 10 10 10 10 9 9 8 7 6 6 8 9 9 10 10 10
6 6 6 6 6 7 7 7 7 6 6 6 6 6 7 7 6 7 6 7 7 7 7 8 8 9 9 9 9 9 9 8 7 7 6 4 4 6 7 8 8 8 9
6 7 7 7 6 5 5 6 6 5 5 5 5 5 5 5 5 6 6 7 6 7 7 8 8 9 9 8 8 8 8 7 7 6 5 4 3 5 6 7 7 7 8
6 8 8 8 7 6 4 4 4 4 4 4 3 4 4 4 4 5 6 7 7 7 7 8 8 9 8 8 7 7 7 8 8 6 5 4 3 5 6 6 7 7 7
7 8 9 8 8 7 6 4 2 2 2 2 2 2 2 2 3 4 5 6 7 7 8 8 9 9 9 8 8 7 7 8 7 6 5 5 5 5 6 6 6 6 6
9 9 9 10 8 7 7 6 4 2 0 1 2 1 1 1 2 4 5 6 7 8 8 8 9 9 9 9 8 8 8 9 8 7 6 6 7 7 7 6 6 6 6
8 9 9 9 9 8 7 6 5 5 3 2 2 2 2 2 2 3 5 6 7 8 9 9 9 9 10 10 9 8 9 9 8 7 7 7 8 8 8 7 7 6 6
9 8 8 9 9 9 7 6 7 6 5 4 3 2 2 2 3 3 4 6 7 8 9 10 10 10 10 10 10 9 9 8 9 8 8 9 9 10 9 9 8 8 7
8 8 7 8 8 8 7 7 6 6 6 5 4 3 2 2 3 4 5 6 7 8 9 10 10 10 9 8 9 9 8 9 9 9 10 11 12 11 11 11 10 10 9
5 7 7 7 8 8 6 6 6 5 6 5 5 4 3 2 2 3 3 4 6 7 7 8 8 8 8 8 8 8 9 9 9 10 11 13 14 14 13 12 12 12 11
6 7 7 7 7 8 7 6 5 5 5 5 6 5 3 2 2 2 2 3 4 5 5 6 6 7 8 9 9 8 9 9 10 11 12 14 15 16 15 14 14 14 13
6 7 7 7 7 7 6 6 5 5 4 5 5 5 4 2 2 3 3 4 4 5 5 5 6 6 6 7 8 8 8 10 11 12 12 15 16 17 17 17 16 16 15
6 7 7 7 7 7 5 5 5 6 6 6 5 6 5 4 3 3 3 4 4 5 6 6 6 6 6 6 7 8 9 10 11 12 13 14 16 18 18 18 18 18 17
5 6 7 7 7 7 6 6 6 6 6 5 6 7 7 6 5 4 3 4 5 6 7 6 6 5 5 5 7 8 8 9 10 11 13 13 14 17 19 19 20 19 19
5 6 7 7 8 7 6 6 6 6 6 5 6 7 7 7 6 4 3 5 6 6 5 5 5 5 6 6 6 7 7 7 9 11 12 13 13 14 16 19 20 20 20
5 5 7 7 7 7 7 6 6 5 5 6 6 6 7 8 7 5 4 4 5 4 5 5 5 5 6 6 6 6 6 7 7 8 9 11 13 14 14 16 19 21 21
4 5 6 7 7 7 6 5 4 4 4 5 5 6 8 7 8 6 4 5 4 4 5 5 6 5 5 5 6 7 6 7 7 8 9 9 12 14 15 15 15 17 21
5 6 6 7 7 6 5 4 4 4 4 4 4 6 7 7 7 5 4 4 4 4 5 5 5 6 5 3 3 4 6 7 8 8 8 8 9 12 13 14 14 14 14
5 6 6 6 7 6 5 4 3 4 4 4 4 6 7 7 7 6 4 4 4 5 5 5 5 4 4 4 3 3 4 4 6 8 8 9 9 8 9 12 13 14 14
5 6 6 7 7 7 6 4 4 3 3 3 4 4 6 8 7 6 5 4 4 4 5 5 6 7 6 5 5 4 3 5 3 3 6 8 8 7 8 8 11 14 15
5 5 5 6 6 6 6 5 5 4 4 4 5 5 6 7 7 7 6 5 4 4 4 5 5 6 6 6 4 5 5 3 3 3 3 4 6 7 7 7 7 10 12
4 5 5 6 6 6 6 5 4 4 4 5 5 6 6 6 6 7 6 5 4 4 4 5 5 5 5 6 5 3 5 5 5 4 5 3 3 4 5 5 5 6 9
4 4 5 5 6 6 6 5 5 5 6 6 6 6 5 5 5 6 7 6 5 4 4 4 5 5 5 6 5 4 4 3 4 4 6 5 5 4 4 3 4 4 5
Wind_Direction
317 312 144 131 137 134 131 127 125 124 123 125 126 127 128 127 129 130 131 130 127 124 121 117 115 113 110 109 108 105 103 98 95 92 91 96 99 98 96 93 88 85 88
280 303 128 123 132 134 133 129 126 127 129 130 131 133 134 133 132 133 135 134 135 132 129 126 122 119 115 114 112 108 105 100 96 91 87 90 95 98 98 100 97 96 92
343 20 113 123 124 128 130 129 130 129 131 134 136 138 139 139 139 140 141 141 140 141 138 131 127 123 122 120 119 116 111 106 101 94 89 88 95 100 102 104 102 100 97
29 49 85 120 124 127 128 127 129 130 131 134 141 144 145 146 146 148 148 146 144 143 141 136 133 131 128 127 128 126 120 115 106 97 93 89 97 107 108 107 104 102 100
44 48 61 98 119 125 127 128 130 131 132 136 140 148 153 156 158 160 157 152 150 148 148 148 144 141 138 136 137 136 133 128 117 109 105 100 104 117 115 110 109 106 105
48 48 54 75 92 108 119 124 129 131 132 136 140 148 157 168 174 173 166 161 161 161 160 160 158 152 149 147 147 145 143 139 132 128 128 127 124 127 122 118 120 118 113
44 39 48 61 68 74 93 112 124 130 135 140 147 151 161 170 180 180 176 174 176 175 175 173 171 166 164 162 160 157 154 150 146 147 154 164 170 150 139 133 129 128 125
48 39 41 46 53 53 57 62 91 136 147 154 160 165 167 172 177 179 182 184 189 190 188 186 185 181 178 175 172 170 164 159 160 164 177 192 194 173 160 153 146 141 135
42 38 32 33 35 36 38 38 33 24 225 198 202 208 210 204 199 194 193 195 200 200 198 197 196 193 190 187 182 178 175 170 169 178 189 203 203 191 179 172 170 167 160
37 32 26 24 25 22 20 22 20 13 1 310 268 257 257 246 242 225 211 210 208 206 203 203 202 201 199 197 193 189 186 178 179 189 198 208 210 203 197 189 188 188 185
26 20 19 17 15 12 13 13 11 6 0 348 324 303 284 276 261 246 235 228 219 213 210 208 207 207 204 203 201 197 192 188 190 200 210 218 216 213 211 206 202 203 201
11 7 12 9 6 6 6 3 4 3 355 352 344 331 308 282 261 252 245 237 230 223 219 217 216 213 208 202 205 203 196 197 200 211 219 224 224 222 221 218 214 213 212
2 5 3 3 3 6 2 359 359 357 354 350 346 334 318 299 284 271 255 247 241 232 227 226 223 217 208 203 203 205 203 202 210 218 224 226 229 229 227 225 221 219 219
9 1 357 1 3 2 1 355 352 353 351 348 340 337 334 320 299 276 253 246 238 235 230 224 218 218 215 214 210 210 212 212 216 222 228 230 231 233 233 231 227 225 224
11 360 353 355 1 359 358 351 351 343 339 332 333 332 327 309 275 271 260 251 244 239 231 227 223 218 219 220 220 218 221 222 223 224 230 232 233 235 237 237 234 231 229
5 356 349 353 358 358 356 345 341 341 335 334 330 321 313 300 285 267 258 252 249 243 237 230 228 227 227 224 228 226 227 228 229 229 231 235 236 236 238 239 239 238 234
354 352 350 350 357 352 345 339 340 336 336 333 328 321 315 302 287 274 257 251 253 251 243 237 232 229 232 232 236 236 234 231 232 231 231 233 236 237 238 240 241 240 238
354 351 349 353 350 345 340 332 332 334 335 330 326 324 317 309 299 286 262 256 260 252 241 237 233 233 236 237 240 239 236 234 234 234 233 232 232 236 237 239 241 242 240
352 347 346 347 348 340 333 328 325 327 330 327 327 325 319 312 304 292 273 271 267 249 237 241 236 232 238 241 245 243 239 236 235 233 229 230 230 231 233 236 238 241 241
351 349 346 343 344 338 332 329 325 324 327 332 328 324 320 316 309 300 289 280 273 252 246 242 241 237 237 239 249 250 244 240 234 230 232 232 231 230 230 232 236 241 242
357 356 348 345 343 346 343 340 331 323 320 324 327 324 320 318 315 305 295 283 266 253 251 248 242 243 239 228 240 257 252 237 235 233 231 230 232 231 228 228 231 234 240
346 345 342 343 341 342 334 318 295 294 296 296 312 324 326 326 323 318 302 286 272 264 256 248 240 244 244 215 219 246 265 262 242 237 231 231 234 229 228 230 228 230 235
338 338 338 335 336 336 333 326 322 319 316 325 329 329 332 331 327 320 307 291 279 265 265 257 243 237 244 230 213 216 229 241 267 249 234 232 231 230 233 232 230 230 231
318 323 326 330 332 334 337 339 338 335 321 312 319 317 324 330 330 327 318 305 288 277 269 263 256 246 242 244 235 231 239 226 227 269 271 247 241 240 238 236 232 232 232
310 318 322 326 329 335 340 340 335 323 310 311 320 322 328 332 336 336 329 317 303 292 285 278 269 258 248 248 242 241 245 248 239 241 267 272 269 251 244 242 240 238 234
308 319 324 326 329 337 340 341 337 327 324 328 331 332 332 331 334 341 335 326 311 301 293 286 275 264 257 253 249 242 238 242 240 236 253 263 265 268 255 245 246 248 242
Height
1520 1521 1522 1523 1524 1525 1526 1527 1529 1530 1531 1532 1533 1533 1534 1534 1535 1535 1536 1536 1536 1537 1537 1537 1538 1538 1539 1539 1539 1540 1540 1541 1541 1541 1542 1542 1543 1543 1543 1543 1544 1544 1544
1520 1521 1522 1523 1524 1525 1527 1528 1529 1530 1531 1532 1533 1534 1534 1535 1535 1536 1536 1537 1537 1538 1538 1538 1538 1539 1539 1540 1540 1541 1541 1542 1542 1542 1543 1543 1544 1544 1544 1544 1545 1545 1545
1519 1521 1522 1523 1524 1526 1527 1528 1529 1531 1532 1532 1533 1534 1535 1535 1536 1536 1537 1537 1538 1538 1539 1539 1539 1540 1540 1541 1541 1542 1542 1543 1543 1543 1544 1544 1544 1545 1545 1545 1545 1546 1546
1519 1521 1522 1523 1525 1526 1527 1528 1529 1531 1532 1532 1533 1534 1535 1535 1536 1537 1537 1538 1538 1539 1539 1539 1540 1540 1541 1541 1542 1542 1543 1543 1544 1544 1544 1545 1545 1545 1546 1546 1546 1546 1546
1520 1521 1522 1524 1525 1526 1527 1528 1529 1530 1531 1532 1533 1534 1535 1535 1536 1537 1537 1538 1538 1539 1539 1540 1540 1541 1541 1542 1542 1543 1543 1544 1544 1545 1545 1545 1545 1546 1546 1546 1547 1547 1547
1520 1521 1522 1523 1525 1526 1527 1528 1529 1530 1531 1532 1533 1533 1534 1535 1536 1536 1537 1538 1538 1539 1539 1540 1540 1541 1541 1542 1543 1543 1543 1544 1544 1545 1545 1545 1546 1546 1546 1547 1547 1547 1547
1520 1521 1522 1523 1525 1526 1527 1528 1528 1529 1530 1531 1532 1533 1533 1534 1535 1536 1536 1537 1538 1538 1539 1540 1540 1541 1541 1542 1542 1543 1543 1544 1544 1545 1545 1546 1546 1546 1547 1547 1547 1548 1548
1520 1521 1522 1523 1524 1525 1526 1527 1528 1529 1529 1530 1531 1532 1533 1533 1534 1535 1535 1536 1537 1537 1538 1539 1539 1540 1541 1541 1542 1543 1543 1544 1544 1545 1545 1546 1546 1546 1547 1547 1547 1548 1548
1521 1521 1522 1523 1523 1524 1525 1526 1526 1527 1528 1529 1530 1531 1531 1532 1533 1533 1534 1535 1535 1536 1537 1538 1538 1539 1540 1540 1541 1542 1542 1543 1544 1544 1545 1545 1546 1546 1547 1547 1547 1547 1548
1520 1521 1521 1522 1522 1523 1524 1524 1525 1526 1527 1528 1528 1529 1530 1530 1531 1532 1532 1533 1534 1534 1535 1536 1537 1538 1538 1539 1540 1541 1541 1542 1543 1543 1544 1545 1545 1546 1546 1547 1547 1547 1547
1520 1520 1520 1521 1521 1522 1522 1523 1523 1524 1525 1526 1526 1527 1528 1528 1529 1530 1530 1531 1532 1532 1533 1534 1535 1536 1537 1537 1538 1539 1540 1541 1541 1542 1543 1544 1544 1545 1545 1546 1546 1546 1547
1519 1519 1519 1519 1520 1520 1520 1521 1521 1522 1522 1523 1524 1525 1525 1526 1526 1527 1528 1529 1529 1530 1531 1532 1533 1534 1534 1535 1536 1537 1538 1539 1539 1540 1541 1542 1543 1543 1544 1544 1545 1545 1545
1518 1518 1518 1518 1518 1518 1518 1519 1519 1519 1520 1520 1521 1522 1522 1523 1524 1524 1525 1526 1526 1527 1528 1529 1530 1531 1531 1532 1533 1534 1535 1536 1537 1538 1539 1540 1540 1541 1542 1543 1543 1544 1544
1518 1518 1517 1517 1517 1516 1516 1516 1517 1517 1517 1518 1518 1518 1519 1520 1520 1521 1522 1522 1523 1524 1525 1526 1526 1527 1528 1529 1530 1531 1532 1533 1534 1535 1536 1537 1538 1539 1539 1540 1541 1541 1542
1517 1516 1516 1516 1515 1515 1514 1514 1514 1514 1514 1514 1515 1515 1515 1516 1517 1517 1518 1519 1519 1520 1521 1522 1523 1524 1525 1526 1526 1527 1528 1529 1530 1531 1532 1534 1535 1535 1536 1537 1538 1538 1539
1516 1515 1515 1514 1513 1512 1512 1511 1511 1511 1511 1511 1511 1511 1512 1512 1512 1513 1514 1514 1515 1516 1517 1518 1519 1519 1520 1521 1522 1523 1524 1525 1526 1527 1528 1529 1530 1532 1533 1533 1534 1535 1536
1515 1514 1513 1512 1511 1510 1509 1509 1508 1508 1508 1508 1508 1508 1508 1508 1508 1508 1509 1510 1511 1512 1512 1513 1514 1515 1515 1516 1517 1518 1519 1520 1521 1522 1523 1524 1526 1527 1528 1529 1530 1531 1532
1513 1512 1511 1510 1509 1508 1507 1506 1505 1505 1504 1504 1504 1504 1503 1503 1504 1504 1504 1504 1506 1507 1507 1508 1509 1509 1510 1511 1512 1513 1514 1515 1516 1517 1518 1519 1520 1521 1523 1524 1525 1526 1527
1511 1510 1509 1508 1507 1505 1504 1503 1503 1502 1501 1501 1500 1500 1500 1499 1499 1499 1499 1499 1500 1501 1502 1503 1503 1504 1505 1505 1506 1507 1508 1509 1510 1511 1512 1513 1515 1516 1517 1518 1520 1521 1522
1510 1508 1507 1506 1504 1503 1501 1500 1500 1499 1498 1498 1497 1496 1496 1495 1495 1495 1494 1494 1495 1495 1496 1497 1498 1499 1499 1500 1501 1501 1502 1502 1503 1504 1506 1507 1508 1510 1511 1512 1514 1515 1516
1508 1506 1505 1503 1501 1500 1498 1497 1496 1495 1495 1494 1494 1493 1492 1491 1491 1490 1490 1490 1490 1490 1491 1492 1492 1493 1494 1495 1496 1495 1495 1496 1497 1497 1499 1500 1502 1503 1504 1506 1507 1508 1510
1506 1504 1502 1501 1499 1497 1495 1494 1493 1492 1491 1491 1490 1490 1489 1488 1487 1486 1485 1485 1485 1485 1486 1487 1487 1488 1488 1490 1491 1490 1489 1489 1489 1491 1492 1494 1495 1497 1498 1499 1500 1502 1503
1504 1502 1500 1498 1497 1495 1493 1491 1490 1489 1488 1487 1487 1486 1485 1484 1483 1482 1481 1481 1481 1481 1481 1481 1482 1482 1483 1484 1485 1486 1485 1483 1483 1484 1485 1487 1488 1490 1491 1493 1493 1495 1496
1502 1500 1498 1496 1494 1492 1490 1489 1487 1486 1484 1484 1483 1482 1481 1480 1479 1478 1477 1477 1477 1476 1476 1476 1477 1477 1478 1477 1479 1480 1481 1480 1480 1478 1479 1480 1482 1483 1484 1486 1487 1488 1489
1499 1498 1496 1494 1492 1490 1488 1486 1484 1483 1482 1481 1480 1479 1478 1477 1475 1474 1473 1473 1472 1472 1471 1471 1472 1472 1472 1472 1473 1473 1474 1474 1474 1474 1473 1474 1475 1477 1478 1479 1480 1481 1481
1497 1495 1493 1491 1489 1487 1485 1483 1482 1480 1479 1478 1477 1475 1474 1474 1472 1471 1470 1469 1468 1467 1467 1467 1467 1467 1467 1467 1468 1468 1468 1469 1468 1469 1469 1469 1469 1470 1472 1473 1473 1474 1474